Flag for Germany Weather past 2 weeks in Norden, Lower Saxony, Germany

Now
41 °F

Passing clouds.


Feels Like: 38 °F
Forecast: 40 / 44 °F
Wind: 6 mph from Northwest

Location: Norderney

Current Time: Jan 27, 2015 at 6:47:55 PM

Latest Report: Jan 27, 2015 at 6:00 PM


Visibility: 13 mi

Pressure: 30.11 "Hg

Humidity: 93%

Dew point: 39 °F

Location of NordenLocation

Historic Weather in Norden — Graph

°F

Norden temperature yesterday

Maximum temperature yesterday: 43 °F (at 4:00 PM)
Minimum temperature yesterday: 38 °F (at 12:00 AM)
Average temperature yesterday: 40 °F

Past Weeks' High & Low Weather Summary

 TemperatureHumidityPressure
High48 °F (Jan 13, 7:00 AM)100% (Jan 19, 2:00 PM)30.32 "Hg (Jan 19, 2:00 PM)
Low26 °F (Jan 23, 6:00 PM)66% (Jan 23, 1:00 AM)29.23 "Hg (Jan 15, 5:00 PM)
Average38 °F88%29.88 "Hg
* Reported Jan 12 6:00 PM — Jan 27 6:00 PM, Norden, Weather by CustomWeather, © 2014

Note: Actual official high and low records may vary slightly from our data, if they occured in-between our weather recording intervals... More about our weather records

Advertising

Norden weather history for previous 24 hours

 ConditionsComfort  
Time TempWeatherWind HumidityBarometerVisibility
6:00 PM
Jan 27
41 °FPassing clouds.6 mph93%30.11 "Hg12 mi
5:00 PM41 °FPartly sunny.6 mph92%30.10 "Hg12 mi
4:00 PM42 °FPartly sunny.8 mph89%30.09 "Hg14 mi
3:00 PM43 °FPartly sunny.8 mph88%30.10 "Hg11 mi
2:00 PM42 °FPartly sunny.9 mph87%30.09 "Hg9 mi
1:00 PM42 °FPartly sunny.9 mph87%30.09 "Hg11 mi
12:00 PM42 °FPartly sunny.12 mph86%30.10 "Hg9 mi
11:00 AM42 °FPartly sunny.9 mph86%30.09 "Hg11 mi
10:00 AM41 °FScattered clouds.12 mph82%30.07 "Hg16 mi
9:00 AM41 °FScattered clouds.13 mph85%30.06 "Hg14 mi
8:00 AM41 °FPassing clouds.13 mph85%30.05 "Hg11 mi
7:00 AM41 °FPassing clouds.14 mph82%30.04 "Hg17 mi
6:00 AM41 °FPassing clouds.13 mph82%30.04 "Hg19 mi
5:00 AM42 °FClear.14 mph76%30.04 "Hg5 mi
4:00 AM42 °FFog.13 mph82%30.03 "Hg3 mi
3:00 AM42 °FFog.14 mph84%30.02 "Hg3 mi
2:00 AM42 °FPassing clouds.13 mph81%30.02 "Hg3 mi
1:00 AM42 °FFog.14 mph82%30.01 "Hg4 mi
12:00 AM41 °FPassing clouds.14 mph82%30.01 "Hg4 mi
11:00 PM
Jan 26
41 °FPassing clouds.15 mph82%30.00 "Hg6 mi
10:00 PM41 °FPassing clouds.14 mph81%29.98 "Hg7 mi
9:00 PM41 °FPassing clouds.13 mph83%29.96 "Hg12 mi
8:00 PM40 °FSprinkles. Overcast.14 mph90%29.96 "Hg5 mi
7:00 PM41 °FPassing clouds.12 mph88%29.95 "Hg9 mi
6:00 PM42 °FPassing clouds.13 mph85%29.93 "Hg6 mi
Weather by CustomWeather, © 2014

See weather overviewHow to use our weather pages